Regional Weather Roundup
Issued by NWS

Home | Current Version | Previous Version | Graphics & Text | Print | Product List | Glossary On
Versions: 1 2 3 4 5 6 7 8 9 10 11 12 13 14 15 16 17 18 19 20 21 22 23 24 25 26 27 28 29 30 31 32 33 34 35 36 37 38 39 40 41 42 43 44 45 46 47 48 49 50
000
ASUS43 KMPX 291110
RWRMN
WEATHER ROUNDUP FOR MINNESOTA
NATIONAL WEATHER SERVICE TWIN CITIES/CHANHASSEN MN
600 AM CDT WED MAR 29 2017


NOTE: "FAIR" INDICATES FEW OR NO CLOUDS BELOW 12,000 FEET WITH NO
SIGNIFICANT WEATHER AND/OR OBSTRUCTIONS TO VISIBILITY. N/A MEANS
CURRENT SKY AND/OR WEATHER CONDITIONS ARE NOT AVAILABLE.

MNZ060>063-068>070-291200-
   Twin Cities Metro

CITY           SKY/WX    TMP DP  RH WIND       PRES   REMARKS
TWIN CITIES    CLOUDY    45  32  60 E8        30.20R
ST PAUL        MOCLDY    39  35  86 CALM      30.22R
CRYSTAL        CLOUDY    36  27  69 NE3       30.20R
BLAINE         CLOUDY    37  30  75 CALM      30.21R
LAKEVILLE      CLOUDY    36  36 100 CALM      30.19S
EDEN PRAIRIE   CLOUDY    44  32  62 NE5       30.18S
SOUTH ST PAUL  MOCLDY    41  32  70 CALM      30.21R
LAKE ELMO      FAIR      34  32  93 CALM      30.22S
$$
MNZ001>005-007-008-013>017-022>024-027-028-291200-
   Northwest Minnesota

CITY           SKY/WX    TMP DP  RH WIND       PRES   REMARKS
BEMIDJI        CLOUDY    33  27  79 E6        30.21S WCI  27
HALLOCK        CLOUDY    36  30  80 SW3       30.19R
ROSEAU         CLOUDY    37  30  75 E6        30.20F
WARROAD        CLOUDY    34  28  80 E7        30.22S WCI  28
THIEF RVR FALL CLOUDY    37  28  70 E10       30.19F
CROOKSTON      CLOUDY    37  30  75 E6        30.18F
FOSSTON        CLOUDY    37  28  70 SE7       30.19S
DETROIT LAKES  PTCLDY    41  30  65 SE3       30.20R
MOORHEAD       CLOUDY    36  32  87 CALM      30.18S
PARK RAPIDS    CLOUDY    38  25  59 SE7       30.20S
MAHNOMEN       FAIR      41  30  64 SE7       30.17S
$$
MNZ006-009>011-018-025>026-291200-
   North Central Minnesota

CITY           SKY/WX    TMP DP  RH WIND       PRES   REMARKS
BAUDETTE       CLOUDY    34  25  69 SE9       30.23S WCI  27
FLAG ISLAND    CLOUDY    34  21  60 E7        30.24R WCI  28
INTL FALLS     PTCLDY    32  24  72 E9        30.27S WCI  24
WASKISH        CLOUDY    34  27  75 E7        30.23S WCI  28
BIG FORK       MOCLDY    34  25  69 E3        30.25R
LONGVILLE      CLOUDY    34  28  80 CALM      30.23S
GRAND RAPIDS   CLOUDY    34  24  67 VRB5      30.27R WCI  30
CRANE LAKE     CLEAR     25  23  93 CALM      30.32S
ORR            PTCLDY    30  21  69 CALM      30.25F
COOK           CLOUDY    28  25  86 E3        30.28S
WALKER         FAIR      31  27  83 CALM      30.22S
$$
MNZ012-019>021-037-291200-
   Northeast Minnesota

CITY           SKY/WX    TMP DP  RH WIND       PRES   REMARKS
DULUTH         PTCLDY    32  26  78 E13       30.28R WCI  22
ELY            CLEAR     25  21  86 CALM      30.29S
HIBBING        PTCLDY    27  24  89 E3        30.26S
EVELETH        PTCLDY    30  23  75 NE3       30.28S
DULUTH HARBOR  CLEAR     36  32  87 NE17      30.33R
TWO HARBORS    CLEAR     36  28  75 NE7G16    30.29R
GRAND MARAIS     N/A     33  25  72 NE12      30.36F WCI  24
G MARAIS ARPRT CLEAR     27  19  74 E7        30.32S WCI  19
$$
MNZ029>031-032-039>041-046>048-054>057-064-291200-
   West Central Minnesota

CITY           SKY/WX    TMP DP  RH WIND       PRES   REMARKS
FERGUS FALLS   CLOUDY    41  30  65 E6        30.21R
WHEATON        PTCLDY    32  30  93 CALM      30.19S FOG
MORRIS         PTCLDY    36  30  80 E8        30.16F
ALEXANDRIA     PTCLDY    38  30  73 E6        30.19S
ELBOW LAKE     FAIR      38  33  82 CALM      30.18R
WADENA         PTCLDY    37  27  65 E5        30.20R
GLENWOOD       PTCLDY    37  30  75 NE6       30.19S
APPLETON       PTCLDY    36  32  87 CALM      30.16F
BENSON         PTCLDY    43  28  56 E7        30.18F
ORTONVILLE     PTCLDY    37  34  87 N3        30.16F
MADISON        CLOUDY    37  37 100 CALM      30.16F
WILLMAR        FAIR      37  30  75 NE3       30.19S
$$
MNZ033>034-036-042>043-049>051-058-059-291200-
   Central Minnesota

CITY           SKY/WX    TMP DP  RH WIND       PRES   REMARKS
ST CLOUD       CLOUDY    36  29  75 NE6       30.21R
SAUK CENTRE    FAIR      32  29  91 CALM      30.20S
PAYNESVILLE    CLOUDY    32  30  91 NE3       30.19F
AITKIN         CLOUDY    34  27  75 E3        30.23S
PINE RIVER     CLOUDY    34  28  80 E5        30.26S WCI  30
BRAINERD       PTCLDY    33  28  81 E5        30.23R WCI  29
STAPLES        CLOUDY    36  27  69 E3        30.21R
LONG PRAIRIE   FAIR      34  30  86 CALM      30.20S
LITTLE FALLS   MOCLDY    34  28  80 CALM      30.22S
LITCHFIELD     CLOUDY    39  30  70 NE3       30.19S
BUFFALO        CLOUDY    37  28  70 NE5       30.21S
MAPLE LAKE     CLOUDY    37  30  77 N3        30.21R
HUTCHINSON     CLOUDY    38  32  81 NE3       30.19S
$$
MNZ037-044-045-052-053-291200-
   East Central Minnesota

CITY           SKY/WX    TMP DP  RH WIND       PRES   REMARKS
PRINCETON      CLOUDY    37  30  75 NE3       30.23R
MORA           CLOUDY    32  30  93 NE3       30.26R
CAMBRIDGE      CLOUDY    37  27  65 N6        30.22R
RUSH CITY      CLOUDY    33  29  83 NE5       30.25R WCI  29
MOOSE LAKE     PTCLDY    32  28  86 NE3       30.26R
CLOQUET        CLEAR     34  27  75 E8        30.27R WCI  27
MCGREGOR       CLOUDY    32  28  86 E5        30.25R WCI  27
$$
MNZ071>073-080-081-089-090-097-098-291200-
   Southwest Minnesota

CITY           SKY/WX    TMP DP  RH WIND       PRES   REMARKS
MONTEVIDEO     CLOUDY    34  28  80 CALM      30.17F
GRANITE FALLS  CLOUDY    38  32  77 CALM      30.18S
CANBY          CLOUDY    38  35  89 CALM      30.17F
MARSHALL       MOCLDY    35  33  92 NW5       30.16F WCI  31
REDWOOD FALLS  MOCLDY    42  33  70 NE3       30.16S
OLIVIA         MOCLDY    39  32  75 E3        30.16S
PIPESTONE      CLOUDY    43  34  70 E3        30.13S
WINDOM         CLOUDY    39  37  93 CALM      30.15S
WORTHINGTON    CLOUDY    38  36  92 NE5       30.14F
JACKSON        CLOUDY    39  36  87 CALM      30.15S
TRACY          MOCLDY    43  36  75 CALM      30.16S
SLAYTON        CLOUDY    36  33  90 CALM      30.15F
$$
MNZ065>067-074>077-082>085-091>093-291200-
   South Central Minnesota

CITY           SKY/WX    TMP DP  RH WIND       PRES   REMARKS
MANKATO        MOCLDY    42  36  79 SE7       30.18S
NEW ULM        MOCLDY    43  34  70 CALM      30.17S
ST JAMES       CLOUDY    39  37  93 CALM      30.17S
FAIRMONT       CLOUDY    40  37  89 NE3       30.16S
GLENCOE        MOCLDY    39  35  85 CALM      30.18R
FARIBAULT      MOCLDY    45  37  76 SE8       30.19R
OWATONNA       CLOUDY    43  36  75 SE6       30.19R
WASECA         MOCLDY    39  34  81 E6        30.19S
ALBERT LEA     CLOUDY    43  36  75 E6        30.17S
$$
MNZ078>079-086>088-094>096-291200-
   Southeast Minnesota

CITY           SKY/WX    TMP DP  RH WIND       PRES   REMARKS
ROCHESTER      CLOUDY    40  35  83 E10       30.19S
RED WING       CLOUDY    36  30  80 CALM      30.21S
STANTON        CLOUDY    37  34  87 CALM      30.18S
DODGE CENTER   MOCLDY    39  36  87 E6        30.18F
WINONA         CLOUDY    36  36 100 CALM      30.24R
AUSTIN         CLOUDY    41  37  87 E6        30.17S
PRESTON        CLOUDY    39  33  80 E6        30.20S
$$
ABBREVIATIONS USED IN REMARKS
   TC - TEMPERATURES IN CELSIUS
  WCI - WIND CHILL INDEX
   HX - HEAT INDEX
  VSB - VISIBILITY
$$



USA.gov is the U.S. government's official web portal to all federal, state and local government web resources and services.